Regional Weather Roundup
Issued by NWS Albany, NY

Home | Current Version | Previous Version | Text Only | Print | Product List | Glossary On
Versions: 1 2 3 4 5 6 7 8 9 10 11 12 13 14 15 16 17 18 19 20 21 22 23 24 25 26 27 28 29 30 31 32 33 34 35 36 37 38 39 40 41 42 43 44 45 46 47 48 49 50
976
ASUS41 KALY 060810
RWRALY

NEW YORK STATE HOURLY WEATHER ROUNDUP
NATIONAL WEATHER SERVICE ALBANY NY
300 AM EST SAT FEB 06 2016

NOTE: "FAIR" INDICATES FEW OR NO CLOUDS BELOW 12,000 FEET WITH NO
SIGNIFICANT WEATHER AND/OR NO OBSTRUCTIONS TO VISIBILITY.

NYZ032-033-038>043-046>054-057>066-NYZ062>081-060900-
EAST


CITY           SKY/WX    TMP DP  RH WIND       PRES   REMARKS
ALBANY         CLEAR     21  14  74 S5        30.31S WCI  15
GLENS FALLS    CLEAR     19  13  77 N3        30.28S
POUGHKEEPSIE   CLEAR     23  15  71 CALM      30.34R
NEWBURGH       CLEAR     23  18  80 W6        30.33R WCI  16
MONTGOMERY     PTCLDY    26  17  68 W8        30.33R WCI  18
WHITE PLAINS   CLEAR     25  15  66 CALM      30.32S
ISLIP          CLOUDY    16  12  84 CALM      30.33S
NEW YORK CITY  PTCLDY    33  18  53 NW13      30.36R WCI  24
CENTRAL PARK   CLEAR     31  16  54 VRB3      30.37F
$$

NYZ005>009-017-018-044>046-055-056-060900-
CENTRAL


CITY           SKY/WX    TMP DP  RH WIND       PRES   REMARKS
FULTON         CLOUDY    30  21  69 S7        30.27S WCI  23
SYRACUSE       CLOUDY    27  20  75 SW9       30.27F WCI  18
ROME           CLOUDY    22  19  89 SE3       30.30S
ELMIRA         CLEAR     19  16  88 CALM      30.30S
BINGHAMTON     CLEAR     21  15  78 W8        30.24S WCI  11
MONTICELLO     CLEAR     19  16  86 W3        30.28S
$$

NYZ026>034-041>043-060900-
NORTH


CITY           SKY/WX    TMP DP  RH WIND       PRES   REMARKS
WATERTOWN      LGT SNOW  31  29  92 SW9       30.23F FOG     WCI  23
FORT DRUM      NOT AVBL
MASSENA        CLOUDY    29  21  72 SW7       30.22S WCI  22
SARANAC LAKE   CLOUDY    19  16  88 W3        30.13F
PLATTSBURGH    CLOUDY    27  16  63 SW6       30.22F WCI  20
$$

NYZ001>004-010>016-019>021-060900-
WEST


CITY           SKY/WX    TMP DP  RH WIND       PRES   REMARKS
NIAGARA FALLS  CLOUDY    31  21  66 S9        30.22F WCI  23
BUFFALO        CLOUDY    30  19  63 S9        30.23F WCI  22
DUNKIRK        CLOUDY    31  18  58 S16       30.25S WCI  20
JAMESTOWN      CLOUDY    25  16  68 S7        30.21S WCI  17
WELLSVILLE     CLEAR     23  14  68 SW8       30.22F WCI  14
ROCHESTER      MOCLDY    29  18  63 SW9       30.26S WCI  20
PENN YAN       CLOUDY    27  17  66 S9        30.27S WCI  18
$$

             KEY
       WCI = WIND CHILL INDEX
       VSB = VISIBILITY
       HX  = HEAT INDEX
$$




USA.gov is the U.S. government's official web portal to all federal, state and local government web resources and services.